Time,TemperatureF,DewpointF,PressureIn,WindDirection,WindDirectionDegrees,WindSpeedMPH,WindSpeedGustMPH,Humidity,HourlyPrecipIn,Conditions,Clouds,dailyrainin,SolarRadiationWatts/m^2,SoftwareType,DateUTC
2014-02-26 00:00:00,18.6,14.8,30.01,WNW,296,0.0,0.0,85,0.00,,,0.00,0,Wunderground v.1.15,2014-02-26 05:00:00,
2014-02-26 00:05:00,18.7,15.2,30.01,WNW,296,0.0,0.0,86,0.00,,,0.00,0,Wunderground v.1.15,2014-02-26 05:05:00,
2014-02-26 00:10:00,18.7,15.2,30.01,WNW,296,0.0,0.0,86,0.00,,,0.00,0,Wunderground v.1.15,2014-02-26 05:10:00,
2014-02-26 00:15:00,18.8,15.6,30.01,WNW,296,0.0,0.0,87,0.00,,,0.00,0,Wunderground v.1.15,2014-02-26 05:15:00,
2014-02-26 00:20:00,18.8,15.6,30.01,WNW,296,0.0,0.0,87,0.00,,,0.00,0,Wunderground v.1.15,2014-02-26 05:20:00,
2014-02-26 00:25:00,18.8,15.6,30.00,WNW,296,0.0,0.0,87,0.00,,,0.00,0,Wunderground v.1.15,2014-02-26 05:25:00,
2014-02-26 00:30:00,18.8,15.6,30.01,WNW,296,0.0,0.0,87,0.00,,,0.00,0,Wunderground v.1.15,2014-02-26 05:30:00,
2014-02-26 00:35:00,18.8,15.6,30.01,WNW,296,0.0,0.0,87,0.00,,,0.00,0,Wunderground v.1.15,2014-02-26 05:35:00,
2014-02-26 00:40:00,18.9,15.7,30.00,WNW,296,0.0,0.0,87,0.00,,,0.00,0,Wunderground v.1.15,2014-02-26 05:40:00,
2014-02-26 00:45:00,18.9,15.7,30.00,WNW,296,0.0,0.0,87,0.00,,,0.00,0,Wunderground v.1.15,2014-02-26 05:45:00,
2014-02-26 00:50:00,19.0,15.8,30.01,WNW,296,0.0,0.0,87,0.00,,,0.00,0,Wunderground v.1.15,2014-02-26 05:50:00,
2014-02-26 00:55:00,19.0,15.8,30.01,WNW,296,0.0,0.0,87,0.00,,,0.00,0,Wunderground v.1.15,2014-02-26 05:55:00,
2014-02-26 01:00:00,19.1,15.9,30.01,WNW,296,0.0,0.0,87,0.00,,,0.00,0,Wunderground v.1.15,2014-02-26 06:00:00,
2014-02-26 01:05:00,19.2,15.7,30.01,WNW,296,0.0,0.0,86,0.00,,,0.00,0,Wunderground v.1.15,2014-02-26 06:05:00,
2014-02-26 01:10:00,19.3,15.8,30.01,WNW,296,0.0,0.0,86,0.00,,,0.00,0,Wunderground v.1.15,2014-02-26 06:10:00,
2014-02-26 01:15:00,19.4,15.9,30.01,WNW,296,0.0,0.0,86,0.00,,,0.00,0,Wunderground v.1.15,2014-02-26 06:15:00,
2014-02-26 01:20:00,19.5,16.0,30.01,WNW,296,0.0,0.0,86,0.00,,,0.00,0,Wunderground v.1.15,2014-02-26 06:20:00,
2014-02-26 01:25:00,19.4,15.9,30.00,WNW,296,0.0,0.0,86,0.00,,,0.00,0,Wunderground v.1.15,2014-02-26 06:25:00,
2014-02-26 01:30:00,19.5,16.0,30.00,WNW,296,0.0,0.0,86,0.00,,,0.00,0,Wunderground v.1.15,2014-02-26 06:30:00,
2014-02-26 01:35:00,19.5,16.0,30.00,WNW,296,0.0,0.0,86,0.00,,,0.00,0,Wunderground v.1.15,2014-02-26 06:35:00,
2014-02-26 01:40:00,19.5,15.7,30.00,WNW,296,0.0,0.0,85,0.00,,,0.00,0,Wunderground v.1.15,2014-02-26 06:40:00,
2014-02-26 01:45:00,19.5,15.5,30.00,WNW,296,0.0,0.0,84,0.00,,,0.00,0,Wunderground v.1.15,2014-02-26 06:45:00,
2014-02-26 01:50:00,19.5,15.5,29.99,WNW,296,0.0,0.0,84,0.00,,,0.00,0,Wunderground v.1.15,2014-02-26 06:50:00,
2014-02-26 01:55:00,19.5,15.5,29.99,WNW,296,0.0,0.0,84,0.00,,,0.00,0,Wunderground v.1.15,2014-02-26 06:55:00,
2014-02-26 02:00:00,19.6,15.6,29.99,WNW,296,0.0,0.0,84,0.00,,,0.00,0,Wunderground v.1.15,2014-02-26 07:00:00,
2014-02-26 02:05:00,19.7,15.6,29.98,WNW,296,0.0,0.0,84,0.00,,,0.00,0,Wunderground v.1.15,2014-02-26 07:05:00,
2014-02-26 02:10:00,19.8,15.7,29.98,WNW,296,0.0,0.0,84,0.00,,,0.00,0,Wunderground v.1.15,2014-02-26 07:10:00,
2014-02-26 02:15:00,19.8,15.7,29.98,WNW,296,0.0,0.0,84,0.00,,,0.00,0,Wunderground v.1.15,2014-02-26 07:15:00,
2014-02-26 02:20:00,19.9,15.8,29.98,WNW,296,0.0,0.0,84,0.00,,,0.00,0,Wunderground v.1.15,2014-02-26 07:20:00,
2014-02-26 02:25:00,20.1,15.8,29.98,WNW,296,0.0,0.0,83,0.00,,,0.00,0,Wunderground v.1.15,2014-02-26 07:25:00,
2014-02-26 02:30:00,20.2,15.9,29.97,WNW,296,0.0,0.0,83,0.00,,,0.00,0,Wunderground v.1.15,2014-02-26 07:30:00,
2014-02-26 02:35:00,20.2,15.9,29.97,WNW,296,0.0,0.0,83,0.00,,,0.00,0,Wunderground v.1.15,2014-02-26 07:35:00,
2014-02-26 02:40:00,20.2,15.6,29.97,WNW,296,0.0,0.0,82,0.00,,,0.00,0,Wunderground v.1.15,2014-02-26 07:40:00,
2014-02-26 02:45:00,20.3,15.7,29.97,WNW,296,0.0,0.0,82,0.00,,,0.00,0,Wunderground v.1.15,2014-02-26 07:45:00,
2014-02-26 02:50:00,20.3,15.7,29.96,WNW,296,0.0,0.0,82,0.00,,,0.00,0,Wunderground v.1.15,2014-02-26 07:50:00,
2014-02-26 02:55:00,20.3,16.0,29.96,WNW,296,0.0,0.0,83,0.00,,,0.00,0,Wunderground v.1.15,2014-02-26 07:55:00,
2014-02-26 03:00:00,20.4,16.1,29.96,WNW,296,0.0,0.0,83,0.00,,,0.00,0,Wunderground v.1.15,2014-02-26 08:00:00,
2014-02-26 03:05:00,20.4,16.1,29.96,WNW,296,0.0,0.0,83,0.00,,,0.00,0,Wunderground v.1.15,2014-02-26 08:05:00,
2014-02-26 03:10:00,20.5,16.2,29.96,WNW,296,0.0,0.0,83,0.00,,,0.00,0,Wunderground v.1.15,2014-02-26 08:10:00,
2014-02-26 03:15:00,20.5,16.2,29.96,WNW,296,0.0,0.0,83,0.00,,,0.00,0,Wunderground v.1.15,2014-02-26 08:15:00,
2014-02-26 03:20:00,20.5,15.9,29.96,WNW,296,0.0,0.0,82,0.00,,,0.00,0,Wunderground v.1.15,2014-02-26 08:20:00,
2014-02-26 03:25:00,20.6,16.0,29.96,WNW,296,0.0,0.0,82,0.00,,,0.00,0,Wunderground v.1.15,2014-02-26 08:25:00,
2014-02-26 03:30:00,20.7,16.4,29.96,WNW,296,0.0,0.0,83,0.00,,,0.00,0,Wunderground v.1.15,2014-02-26 08:30:00,
2014-02-26 03:35:00,20.8,16.2,29.95,WNW,296,0.0,0.0,82,0.00,,,0.00,0,Wunderground v.1.15,2014-02-26 08:35:00,
2014-02-26 03:40:00,20.8,16.2,29.96,WNW,296,0.0,0.0,82,0.00,,,0.00,0,Wunderground v.1.15,2014-02-26 08:40:00,
2014-02-26 03:45:00,20.8,16.2,29.95,WNW,296,0.0,0.0,82,0.00,,,0.00,0,Wunderground v.1.15,2014-02-26 08:45:00,
2014-02-26 03:50:00,20.9,16.5,29.95,WNW,296,0.0,0.0,83,0.00,,,0.00,0,Wunderground v.1.15,2014-02-26 08:50:00,
2014-02-26 03:55:00,20.9,16.5,29.95,WNW,296,0.0,0.0,83,0.00,,,0.00,0,Wunderground v.1.15,2014-02-26 08:55:00,
2014-02-26 04:00:00,20.9,16.5,29.95,WNW,296,0.0,0.0,83,0.00,,,0.00,0,Wunderground v.1.15,2014-02-26 09:00:00,
2014-02-26 04:05:00,21.0,16.6,29.95,WNW,296,0.0,0.0,83,0.00,,,0.00,0,Wunderground v.1.15,2014-02-26 09:05:00,
2014-02-26 04:10:00,21.1,17.0,29.94,WNW,296,0.0,0.0,84,0.00,,,0.00,0,Wunderground v.1.15,2014-02-26 09:10:00,
2014-02-26 04:15:00,21.1,16.7,29.94,WNW,296,0.0,0.0,83,0.00,,,0.00,0,Wunderground v.1.15,2014-02-26 09:15:00,
2014-02-26 04:20:00,21.1,16.7,29.94,WNW,296,0.0,0.0,83,0.00,,,0.00,0,Wunderground v.1.15,2014-02-26 09:20:00,
2014-02-26 04:25:00,21.2,17.1,29.94,WNW,296,0.0,0.0,84,0.00,,,0.00,0,Wunderground v.1.15,2014-02-26 09:25:00,
2014-02-26 04:30:00,21.2,16.8,29.94,WNW,296,0.0,0.0,83,0.00,,,0.00,0,Wunderground v.1.15,2014-02-26 09:30:00,
2014-02-26 04:35:00,21.2,16.8,29.94,WNW,296,0.0,0.0,83,0.00,,,0.00,0,Wunderground v.1.15,2014-02-26 09:35:00,
2014-02-26 04:40:00,21.2,17.1,29.94,WNW,296,0.0,0.0,84,0.00,,,0.00,0,Wunderground v.1.15,2014-02-26 09:40:00,
2014-02-26 04:45:00,21.2,17.1,29.93,WNW,296,0.0,0.0,84,0.00,,,0.00,0,Wunderground v.1.15,2014-02-26 09:45:00,
2014-02-26 04:55:00,21.2,16.8,29.93,WNW,296,0.0,0.0,83,0.00,,,0.00,0,Wunderground v.1.15,2014-02-26 09:55:00,
2014-02-26 05:00:00,21.2,16.8,29.93,WNW,296,0.0,0.0,83,0.00,,,0.00,0,Wunderground v.1.15,2014-02-26 10:00:00,
2014-02-26 05:05:00,21.2,16.8,29.94,WNW,296,0.0,0.0,83,0.00,,,0.00,0,Wunderground v.1.15,2014-02-26 10:05:00,
2014-02-26 05:10:00,21.3,17.2,29.93,WNW,296,0.0,0.0,84,0.00,,,0.00,0,Wunderground v.1.15,2014-02-26 10:10:00,
2014-02-26 05:15:00,21.4,17.3,29.93,WNW,296,0.0,0.0,84,0.00,,,0.00,0,Wunderground v.1.15,2014-02-26 10:15:00,
2014-02-26 05:20:00,21.4,17.3,29.93,WNW,296,0.0,0.0,84,0.00,,,0.00,0,Wunderground v.1.15,2014-02-26 10:20:00,
2014-02-26 05:25:00,21.5,17.4,29.93,WNW,296,0.0,0.0,84,0.00,,,0.00,0,Wunderground v.1.15,2014-02-26 10:25:00,
2014-02-26 05:35:00,21.7,17.6,29.93,WNW,296,0.0,0.0,84,0.00,,,0.00,0,Wunderground v.1.15,2014-02-26 10:35:00,
2014-02-26 05:40:00,21.7,17.3,29.93,WNW,296,0.0,0.0,83,0.00,,,0.00,0,Wunderground v.1.15,2014-02-26 10:40:00,
2014-02-26 05:45:00,21.7,17.3,29.93,WNW,296,0.0,0.0,83,0.00,,,0.00,0,Wunderground v.1.15,2014-02-26 10:45:00,
2014-02-26 05:50:00,21.7,17.1,29.93,WNW,296,0.0,0.0,82,0.00,,,0.00,0,Wunderground v.1.15,2014-02-26 10:50:00,
2014-02-26 05:55:00,21.7,17.1,29.93,WNW,296,0.0,0.0,82,0.00,,,0.00,0,Wunderground v.1.15,2014-02-26 10:55:00,
2014-02-26 06:00:00,21.7,17.3,29.93,WNW,296,0.0,0.0,83,0.00,,,0.00,0,Wunderground v.1.15,2014-02-26 11:00:00,
2014-02-26 06:05:00,21.8,17.4,29.93,WNW,296,0.0,0.0,83,0.00,,,0.00,0,Wunderground v.1.15,2014-02-26 11:05:00,
2014-02-26 06:10:00,21.9,17.8,29.93,WNW,296,0.0,0.0,84,0.00,,,0.00,0,Wunderground v.1.15,2014-02-26 11:10:00,
2014-02-26 06:15:00,22.0,17.9,29.93,WNW,296,0.0,0.0,84,0.00,,,0.00,0,Wunderground v.1.15,2014-02-26 11:15:00,
2014-02-26 06:20:00,22.0,17.9,29.93,WNW,296,0.0,0.0,84,0.00,,,0.00,0,Wunderground v.1.15,2014-02-26 11:20:00,
2014-02-26 06:25:00,22.1,18.0,29.93,WNW,296,0.0,0.0,84,0.00,,,0.00,0,Wunderground v.1.15,2014-02-26 11:25:00,
2014-02-26 06:30:00,22.1,18.0,29.93,WNW,296,0.0,1.0,84,0.00,,,0.00,0,Wunderground v.1.15,2014-02-26 11:30:00,
2014-02-26 06:35:00,22.2,18.1,29.93,WNW,296,0.0,1.0,84,0.00,,,0.00,0,Wunderground v.1.15,2014-02-26 11:35:00,
2014-02-26 06:40:00,22.3,18.2,29.92,WNW,296,0.0,0.0,84,0.00,,,0.00,0,Wunderground v.1.15,2014-02-26 11:40:00,
2014-02-26 06:50:00,22.5,18.4,29.93,WNW,296,0.0,0.0,84,0.00,,,0.00,5,Wunderground v.1.15,2014-02-26 11:50:00,
2014-02-26 06:55:00,22.5,18.7,29.92,WSW,254,1.0,2.0,85,0.00,,,0.00,7,Wunderground v.1.15,2014-02-26 11:55:00,
2014-02-26 06:58:00,22.4,18.3,29.93,WNW,296,0.0,0.0,84,0.00,,,0.00,0,Wunderground v.1.15,2014-02-26 11:58:00,
2014-02-26 07:10:00,23.2,20.2,29.94,WSW,252,1.0,2.0,88,0.00,,,0.00,12,Wunderground v.1.15,2014-02-26 12:10:00,
2014-02-26 07:13:00,22.7,19.1,29.92,WSW,254,1.0,1.0,86,0.00,,,0.00,12,Wunderground v.1.15,2014-02-26 12:13:00,
2014-02-26 07:15:00,23.4,20.4,29.94,WSW,252,1.0,2.0,88,0.00,,,0.00,16,Wunderground v.1.15,2014-02-26 12:15:00,
2014-02-26 07:18:00,23.0,19.7,29.93,WSW,250,1.0,3.0,87,0.00,,,0.00,12,Wunderground v.1.15,2014-02-26 12:18:00,
2014-02-26 07:20:00,23.5,20.5,29.94,WSW,252,1.0,1.0,88,0.00,,,0.00,25,Wunderground v.1.15,2014-02-26 12:20:00,
2014-02-26 07:25:00,23.6,20.8,29.94,WSW,238,1.0,1.0,89,0.00,,,0.00,21,Wunderground v.1.15,2014-02-26 12:25:00,
2014-02-26 07:30:00,23.7,21.2,29.94,WSW,239,2.0,2.0,90,0.00,,,0.00,21,Wunderground v.1.15,2014-02-26 12:30:00,
2014-02-26 07:35:00,23.8,21.3,29.94,WNW,295,2.0,2.0,90,0.00,,,0.00,23,Wunderground v.1.15,2014-02-26 12:35:00,
2014-02-26 07:40:00,23.8,21.3,29.94,WSW,254,1.0,1.0,90,0.00,,,0.00,26,Wunderground v.1.15,2014-02-26 12:40:00,
2014-02-26 07:45:00,23.8,21.6,29.94,WSW,250,1.0,3.0,91,0.00,,,0.00,28,Wunderground v.1.15,2014-02-26 12:45:00,
2014-02-26 07:50:00,23.9,21.7,29.94,WSW,250,2.0,2.0,91,0.00,,,0.00,28,Wunderground v.1.15,2014-02-26 12:50:00,
2014-02-26 08:00:00,24.0,21.8,29.94,WSW,250,1.0,1.0,91,0.00,,,0.00,30,Wunderground v.1.15,2014-02-26 13:00:00,
2014-02-26 08:05:00,24.1,21.9,29.94,WSW,249,2.0,2.0,91,0.00,,,0.00,37,Wunderground v.1.15,2014-02-26 13:05:00,
2014-02-26 08:08:00,23.9,21.7,29.94,WSW,250,1.0,3.0,91,0.00,,,0.00,37,Wunderground v.1.15,2014-02-26 13:08:00,
2014-02-26 08:10:00,24.2,22.0,29.94,WSW,249,1.0,1.0,91,0.00,,,0.00,37,Wunderground v.1.15,2014-02-26 13:10:00,
2014-02-26 08:20:00,24.4,22.2,29.94,WSW,249,1.0,4.0,91,0.00,,,0.00,37,Wunderground v.1.15,2014-02-26 13:20:00,
2014-02-26 08:25:00,24.6,22.3,29.95,WSW,248,2.0,4.0,91,0.00,,,0.00,69,Wunderground v.1.15,2014-02-26 13:25:00,
2014-02-26 08:28:00,24.3,22.1,29.94,WSW,249,1.0,2.0,91,0.00,,,0.00,35,Wunderground v.1.15,2014-02-26 13:28:00,
2014-02-26 08:30:00,24.8,22.5,29.95,WSW,237,2.0,2.0,91,0.00,,,0.00,58,Wunderground v.1.15,2014-02-26 13:30:00,
2014-02-26 08:35:00,25.0,22.7,29.95,SW,234,3.0,3.0,91,0.00,,,0.00,56,Wunderground v.1.15,2014-02-26 13:35:00,
2014-02-26 08:40:00,25.2,22.9,29.95,West,279,2.0,2.0,91,0.00,,,0.00,53,Wunderground v.1.15,2014-02-26 13:40:00,
2014-02-26 08:45:00,25.3,23.0,29.95,WSW,248,2.0,2.0,91,0.00,,,0.00,40,Wunderground v.1.15,2014-02-26 13:45:00,
2014-02-26 08:50:00,25.5,23.2,29.95,West,271,1.0,1.0,91,0.00,,,0.00,39,Wunderground v.1.15,2014-02-26 13:50:00,
2014-02-26 08:55:00,25.5,23.2,29.95,WSW,240,2.0,4.0,91,0.00,,,0.00,32,Wunderground v.1.15,2014-02-26 13:55:00,
2014-02-26 09:05:00,25.6,23.3,29.96,WSW,240,3.0,6.0,91,0.00,,,0.00,23,Wunderground v.1.15,2014-02-26 14:05:00,
2014-02-26 09:10:00,25.7,23.4,29.96,South,190,2.0,2.0,91,0.00,,,0.00,33,Wunderground v.1.15,2014-02-26 14:10:00,
2014-02-26 09:13:00,25.6,23.3,29.95,WSW,252,3.0,6.0,91,0.00,,,0.00,26,Wunderground v.1.15,2014-02-26 14:13:00,
2014-02-26 09:15:00,25.7,23.7,29.96,WSW,254,1.0,2.0,92,0.00,,,0.00,40,Wunderground v.1.15,2014-02-26 14:15:00,
2014-02-26 09:20:00,25.8,23.8,29.96,West,273,2.0,3.0,92,0.00,,,0.00,44,Wunderground v.1.15,2014-02-26 14:20:00,
2014-02-26 09:30:00,26.1,24.1,29.96,SW,231,2.0,2.0,92,0.00,,,0.00,46,Wunderground v.1.15,2014-02-26 14:30:00,
2014-02-26 09:35:00,26.2,23.9,29.96,WNW,286,3.0,4.0,91,0.00,,,0.00,46,Wunderground v.1.15,2014-02-26 14:35:00,
2014-02-26 09:38:00,26.0,24.0,29.96,WSW,240,2.0,3.0,92,0.00,,,0.00,44,Wunderground v.1.15,2014-02-26 14:38:00,
2014-02-26 09:40:00,26.3,24.0,29.96,WSW,248,3.0,3.0,91,0.00,,,0.00,49,Wunderground v.1.15,2014-02-26 14:40:00,
2014-02-26 09:50:00,26.6,24.1,29.96,NW,311,3.0,3.0,90,0.00,,,0.00,69,Wunderground v.1.15,2014-02-26 14:50:00,
2014-02-26 09:55:00,26.7,24.2,29.96,WSW,258,4.0,4.0,90,0.00,,,0.00,77,Wunderground v.1.15,2014-02-26 14:55:00,
2014-02-26 09:58:00,26.4,24.1,29.96,WNW,285,2.0,3.0,91,0.00,,,0.00,60,Wunderground v.1.15,2014-02-26 14:58:00,
2014-02-26 10:00:00,26.9,24.4,29.96,WNW,298,4.0,4.0,90,0.00,,,0.00,88,Wunderground v.1.15,2014-02-26 15:00:00,
2014-02-26 10:05:00,27.1,24.3,29.96,WNW,289,4.0,4.0,89,0.00,,,0.00,47,Wunderground v.1.15,2014-02-26 15:05:00,
2014-02-26 10:10:00,27.1,24.3,29.96,WNW,284,4.0,4.0,89,0.00,,,0.00,39,Wunderground v.1.15,2014-02-26 15:10:00,
2014-02-26 10:20:00,26.4,23.6,29.97,NW,309,6.0,6.0,89,0.00,,,0.00,47,Wunderground v.1.15,2014-02-26 15:20:00,
2014-02-26 10:25:00,26.0,23.2,29.97,NNW,340,5.0,6.0,89,0.00,,,0.00,86,Wunderground v.1.15,2014-02-26 15:25:00,
2014-02-26 10:28:00,26.9,24.1,29.96,NW,304,5.0,6.0,89,0.00,,,0.00,19,Wunderground v.1.15,2014-02-26 15:28:00,
2014-02-26 10:43:00,25.8,22.7,29.96,West,260,6.0,6.0,88,0.00,,,0.00,97,Wunderground v.1.15,2014-02-26 15:43:00,
2014-02-26 10:50:00,27.1,22.3,29.95,WSW,253,4.0,8.0,82,0.00,,,0.00,135,Wunderground v.1.15,2014-02-26 15:50:00,
2014-02-26 10:53:00,26.1,22.5,29.96,NW,317,5.0,5.0,86,0.00,,,0.00,125,Wunderground v.1.15,2014-02-26 15:53:00,
2014-02-26 11:08:00,27.7,22.3,29.95,WSW,254,4.0,8.0,80,0.00,,,0.00,163,Wunderground v.1.15,2014-02-26 16:08:00,
2014-02-26 11:13:00,27.8,21.8,29.95,West,265,5.0,5.0,78,0.00,,,0.00,241,Wunderground v.1.15,2014-02-26 16:13:00,
2014-02-26 11:15:00,28.2,21.3,29.94,South,185,5.0,8.0,75,0.00,,,0.00,450,Wunderground v.1.15,2014-02-26 16:15:00,
2014-02-26 11:18:00,28.0,22.0,29.95,NW,309,5.0,7.0,78,0.00,,,0.00,130,Wunderground v.1.15,2014-02-26 16:18:00,
2014-02-26 11:23:00,28.1,21.5,29.94,NW,319,6.0,8.0,76,0.00,,,0.00,350,Wunderground v.1.15,2014-02-26 16:23:00,
2014-02-26 11:33:00,28.2,21.0,29.94,South,171,5.0,5.0,74,0.00,,,0.01,276,Wunderground v.1.15,2014-02-26 16:33:00,
2014-02-26 11:38:00,28.6,21.4,29.93,NW,323,6.0,9.0,74,0.00,,,0.01,550,Wunderground v.1.15,2014-02-26 16:38:00,
2014-02-26 11:40:00,29.9,21.3,29.93,WNW,285,5.0,5.0,70,0.00,,,0.02,619,Wunderground v.1.15,2014-02-26 16:40:00,
2014-02-26 11:43:00,29.1,21.2,29.93,WNW,298,6.0,7.0,72,0.00,,,0.01,450,Wunderground v.1.15,2014-02-26 16:43:00,
2014-02-26 11:48:00,29.6,22.0,29.93,West,261,5.0,7.0,73,0.00,,,0.01,497,Wunderground v.1.15,2014-02-26 16:48:00,
2014-02-26 11:55:00,29.0,20.1,29.93,WNW,302,7.0,7.0,69,0.00,,,0.02,258,Wunderground v.1.15,2014-02-26 16:55:00,
2014-02-26 12:00:00,28.4,19.9,29.93,West,269,8.0,9.0,70,0.00,,,0.02,174,Wunderground v.1.15,2014-02-26 17:00:00,
2014-02-26 12:18:00,27.9,18.7,29.93,WNW,290,7.0,9.0,68,0.00,,,0.03,204,Wunderground v.1.15,2014-02-26 17:18:00,
2014-02-26 12:23:00,27.9,18.7,29.93,WNW,294,6.0,8.0,68,0.00,,,0.03,294,Wunderground v.1.15,2014-02-26 17:23:00,
2014-02-26 12:28:00,28.2,18.3,29.92,West,275,7.0,8.0,66,0.00,,,0.03,121,Wunderground v.1.15,2014-02-26 17:28:00,
2014-02-26 12:38:00,29.3,17.1,29.92,North,5,8.0,8.0,60,0.00,,,0.03,118,Wunderground v.1.15,2014-02-26 17:38:00,
2014-02-26 12:40:00,29.0,14.4,29.91,WNW,300,7.0,7.0,54,0.00,,,0.03,102,Wunderground v.1.15,2014-02-26 17:40:00,
2014-02-26 12:43:00,29.6,16.6,29.91,NW,308,8.0,8.0,58,0.00,,,0.03,76,Wunderground v.1.15,2014-02-26 17:43:00,
2014-02-26 12:48:00,29.4,15.6,29.91,NNW,336,7.0,8.0,56,0.00,,,0.03,135,Wunderground v.1.15,2014-02-26 17:48:00,
2014-02-26 12:50:00,29.0,14.0,29.91,NW,315,8.0,8.0,53,0.00,,,0.03,146,Wunderground v.1.15,2014-02-26 17:50:00,
2014-02-26 12:58:00,28.7,13.7,29.90,NW,325,7.0,10.0,53,0.00,,,0.03,192,Wunderground v.1.15,2014-02-26 17:58:00,
2014-02-26 13:08:00,29.4,13.0,29.90,NW,306,9.0,10.0,50,0.00,,,0.03,234,Wunderground v.1.15,2014-02-26 18:08:00,
2014-02-26 13:13:00,29.7,13.3,29.90,NW,304,8.0,14.0,50,0.00,,,0.03,320,Wunderground v.1.15,2014-02-26 18:13:00,
2014-02-26 13:18:00,30.0,12.2,29.90,West,269,8.0,14.0,47,0.00,,,0.03,171,Wunderground v.1.15,2014-02-26 18:18:00,
2014-02-26 13:25:00,28.9,11.2,29.89,NW,324,8.0,8.0,47,0.00,,,0.03,104,Wunderground v.1.15,2014-02-26 18:25:00,
2014-02-26 13:28:00,29.8,12.5,29.90,WNW,292,7.0,16.0,48,0.00,,,0.03,151,Wunderground v.1.15,2014-02-26 18:28:00,
2014-02-26 13:30:00,29.0,12.2,29.89,WNW,296,8.0,10.0,49,0.00,,,0.03,156,Wunderground v.1.15,2014-02-26 18:30:00,
2014-02-26 13:48:00,29.2,12.8,29.89,West,278,8.0,8.0,50,0.00,,,0.03,429,Wunderground v.1.15,2014-02-26 18:48:00,
2014-02-26 13:53:00,29.6,12.3,29.89,WNW,300,8.0,9.0,48,0.00,,,0.03,341,Wunderground v.1.15,2014-02-26 18:53:00,
2014-02-26 14:00:00,29.4,10.1,29.89,West,265,6.0,6.0,44,0.00,,,0.03,272,Wunderground v.1.15,2014-02-26 19:00:00,
2014-02-26 14:03:00,29.5,10.2,29.89,WNW,302,8.0,8.0,44,0.00,,,0.03,364,Wunderground v.1.15,2014-02-26 19:03:00,
2014-02-26 14:05:00,29.3,11.5,29.89,NW,326,7.0,7.0,47,0.00,,,0.03,204,Wunderground v.1.15,2014-02-26 19:05:00,
2014-02-26 14:08:00,29.6,9.8,29.89,West,264,7.0,7.0,43,0.00,,,0.03,420,Wunderground v.1.15,2014-02-26 19:08:00,
2014-02-26 14:23:00,29.1,12.8,29.89,West,261,7.0,7.0,50,0.00,,,0.03,65,Wunderground v.1.15,2014-02-26 19:23:00,
2014-02-26 14:25:00,28.4,10.7,29.89,NW,304,8.0,8.0,47,0.00,,,0.03,81,Wunderground v.1.15,2014-02-26 19:25:00,
2014-02-26 14:28:00,28.7,11.0,29.89,West,271,8.0,8.0,47,0.00,,,0.03,287,Wunderground v.1.15,2014-02-26 19:28:00,
2014-02-26 14:43:00,28.3,9.1,29.89,West,279,8.0,8.0,44,0.00,,,0.03,58,Wunderground v.1.15,2014-02-26 19:43:00,
2014-02-26 14:48:00,28.1,8.4,29.90,WNW,299,7.0,9.0,43,0.00,,,0.03,51,Wunderground v.1.15,2014-02-26 19:48:00,
2014-02-26 14:53:00,28.2,7.5,29.89,WNW,303,7.0,9.0,41,0.00,,,0.03,47,Wunderground v.1.15,2014-02-26 19:53:00,
2014-02-26 14:55:00,28.2,6.9,29.89,NW,319,7.0,7.0,40,0.00,,,0.03,49,Wunderground v.1.15,2014-02-26 19:55:00,
2014-02-26 14:58:00,28.1,8.4,29.89,West,281,7.0,7.0,43,0.00,,,0.03,47,Wunderground v.1.15,2014-02-26 19:58:00,
2014-02-26 15:13:00,28.3,7.6,29.89,NW,322,5.0,5.0,41,0.00,,,0.03,79,Wunderground v.1.15,2014-02-26 20:13:00,
2014-02-26 15:18:00,28.6,8.4,29.89,NW,317,5.0,5.0,42,0.00,,,0.03,77,Wunderground v.1.15,2014-02-26 20:18:00,
2014-02-26 15:23:00,28.8,8.0,29.89,WNW,299,6.0,10.0,41,0.00,,,0.03,127,Wunderground v.1.15,2014-02-26 20:23:00,
2014-02-26 15:28:00,28.2,5.8,29.89,NW,306,8.0,10.0,38,0.00,,,0.03,127,Wunderground v.1.15,2014-02-26 20:28:00,
2014-02-26 15:38:00,27.6,5.8,29.88,WNW,292,6.0,10.0,39,0.00,,,0.03,141,Wunderground v.1.15,2014-02-26 20:38:00,
2014-02-26 15:43:00,27.6,6.4,29.88,West,262,6.0,10.0,40,0.00,,,0.03,93,Wunderground v.1.15,2014-02-26 20:43:00,
2014-02-26 15:48:00,27.5,5.2,29.88,NW,325,7.0,10.0,38,0.00,,,0.03,123,Wunderground v.1.15,2014-02-26 20:48:00,
2014-02-26 15:53:00,27.3,5.6,29.88,WNW,289,7.0,10.0,39,0.00,,,0.03,65,Wunderground v.1.15,2014-02-26 20:53:00,
2014-02-26 15:58:00,27.3,5.0,29.88,NW,309,7.0,10.0,38,0.00,,,0.03,39,Wunderground v.1.15,2014-02-26 20:58:00,
2014-02-26 16:03:00,27.2,5.5,29.88,West,271,7.0,10.0,39,0.00,,,0.03,37,Wunderground v.1.15,2014-02-26 21:03:00,
2014-02-26 16:13:00,27.2,4.3,29.88,NW,321,6.0,7.0,37,0.00,,,0.03,35,Wunderground v.1.15,2014-02-26 21:13:00,
2014-02-26 16:18:00,27.0,5.3,29.88,NW,315,6.0,7.0,39,0.00,,,0.03,33,Wunderground v.1.15,2014-02-26 21:18:00,
2014-02-26 16:23:00,27.0,4.7,29.88,WNW,291,5.0,5.0,38,0.00,,,0.03,32,Wunderground v.1.15,2014-02-26 21:23:00,
2014-02-26 16:29:00,27.1,5.4,29.88,NW,304,4.0,5.0,39,0.00,,,0.03,32,Wunderground v.1.15,2014-02-26 21:29:00,
2014-02-26 16:38:00,26.6,2.6,29.88,WNW,294,6.0,6.0,35,0.00,,,0.03,42,Wunderground v.1.15,2014-02-26 21:38:00,
2014-02-26 16:43:00,26.5,4.8,29.88,West,277,7.0,7.0,39,0.00,,,0.03,35,Wunderground v.1.15,2014-02-26 21:43:00,
2014-02-26 16:48:00,26.5,4.3,29.88,NW,312,5.0,7.0,38,0.00,,,0.03,51,Wunderground v.1.15,2014-02-26 21:48:00,
2014-02-26 16:53:00,26.3,3.5,29.88,WNW,300,6.0,9.0,37,0.00,,,0.03,47,Wunderground v.1.15,2014-02-26 21:53:00,
2014-02-26 16:58:00,26.2,2.8,29.88,WNW,285,7.0,9.0,36,0.00,,,0.03,25,Wunderground v.1.15,2014-02-26 21:58:00,
2014-02-26 17:03:00,26.0,3.2,29.88,WNW,285,7.0,10.0,37,0.00,,,0.03,23,Wunderground v.1.15,2014-02-26 22:03:00,
2014-02-26 17:08:00,25.8,3.1,29.88,WNW,290,6.0,10.0,37,0.00,,,0.03,21,Wunderground v.1.15,2014-02-26 22:08:00,
2014-02-26 17:13:00,25.7,3.0,29.88,WNW,302,6.0,8.0,37,0.00,,,0.03,18,Wunderground v.1.15,2014-02-26 22:13:00,
2014-02-26 17:23:00,25.2,3.1,29.88,West,279,5.0,5.0,38,0.00,,,0.03,12,Wunderground v.1.15,2014-02-26 22:23:00,
2014-02-26 17:28:00,25.0,3.5,29.88,NW,312,5.0,5.0,39,0.00,,,0.03,11,Wunderground v.1.15,2014-02-26 22:28:00,
2014-02-26 17:33:00,24.7,2.7,29.88,NNW,335,5.0,5.0,38,0.00,,,0.03,7,Wunderground v.1.15,2014-02-26 22:33:00,
2014-02-26 17:38:00,24.5,3.0,29.88,West,275,5.0,5.0,39,0.00,,,0.03,5,Wunderground v.1.15,2014-02-26 22:38:00,
2014-02-26 17:43:00,24.3,2.3,29.89,NW,306,5.0,5.0,38,0.00,,,0.03,0,Wunderground v.1.15,2014-02-26 22:43:00,
2014-02-26 17:53:00,24.0,0.9,29.89,WNW,290,5.0,7.0,36,0.00,,,0.03,0,Wunderground v.1.15,2014-02-26 22:53:00,
2014-02-26 17:58:00,23.9,0.8,29.88,NW,311,6.0,7.0,36,0.00,,,0.03,0,Wunderground v.1.15,2014-02-26 22:58:00,
2014-02-26 18:03:00,23.7,2.3,29.88,NW,307,5.0,5.0,39,0.00,,,0.03,0,Wunderground v.1.15,2014-02-26 23:03:00,
2014-02-26 18:08:00,23.5,3.2,29.89,West,277,3.0,5.0,41,0.00,,,0.03,0,Wunderground v.1.15,2014-02-26 23:08:00,
2014-02-26 18:13:00,23.3,3.0,29.89,WNW,286,2.0,4.0,41,0.00,,,0.03,0,Wunderground v.1.15,2014-02-26 23:13:00,
2014-02-26 18:18:00,23.1,2.3,29.89,NW,320,3.0,4.0,40,0.00,,,0.03,0,Wunderground v.1.15,2014-02-26 23:18:00,
2014-02-26 18:28:00,22.9,2.7,29.89,NW,304,3.0,3.0,41,0.00,,,0.03,0,Wunderground v.1.15,2014-02-26 23:28:00,
2014-02-26 18:33:00,22.7,3.5,29.89,NW,305,3.0,3.0,43,0.00,,,0.03,0,Wunderground v.1.15,2014-02-26 23:33:00,
2014-02-26 18:38:00,22.5,3.3,29.89,NW,318,2.0,4.0,43,0.00,,,0.03,0,Wunderground v.1.15,2014-02-26 23:38:00,
2014-02-26 18:43:00,22.4,2.7,29.89,WNW,293,2.0,4.0,42,0.00,,,0.03,0,Wunderground v.1.15,2014-02-26 23:43:00,
2014-02-26 18:48:00,22.2,3.1,29.90,WNW,286,2.0,2.0,43,0.00,,,0.03,0,Wunderground v.1.15,2014-02-26 23:48:00,
2014-02-26 18:53:00,22.1,3.5,29.90,WNW,297,2.0,2.0,44,0.00,,,0.03,0,Wunderground v.1.15,2014-02-26 23:53:00,
2014-02-26 18:58:00,22.0,3.4,29.89,SW,229,2.0,4.0,44,0.00,,,0.03,0,Wunderground v.1.15,2014-02-26 23:58:00,
2014-02-26 19:08:00,21.7,2.6,29.90,WSW,257,2.0,2.0,43,0.00,,,0.03,0,Wunderground v.1.15,2014-02-27 00:08:00,
2014-02-26 19:13:00,21.6,2.5,29.90,NNW,348,2.0,2.0,43,0.00,,,0.03,0,Wunderground v.1.15,2014-02-27 00:13:00,
2014-02-26 19:18:00,21.5,3.4,29.90,WNW,296,1.0,2.0,45,0.00,,,0.03,0,Wunderground v.1.15,2014-02-27 00:18:00,
2014-02-26 19:24:00,21.2,3.1,29.90,WNW,287,2.0,2.0,45,0.00,,,0.03,0,Wunderground v.1.15,2014-02-27 00:24:00,
2014-02-26 19:33:00,20.8,3.2,29.90,WNW,285,1.0,2.0,46,0.00,,,0.03,0,Wunderground v.1.15,2014-02-27 00:33:00,
2014-02-26 19:43:00,20.8,2.8,29.90,WNW,286,1.0,1.0,45,0.00,,,0.03,0,Wunderground v.1.15,2014-02-27 00:43:00,
2014-02-26 19:48:00,20.7,3.2,29.90,WNW,286,0.0,1.0,46,0.00,,,0.03,0,Wunderground v.1.15,2014-02-27 00:48:00,
2014-02-26 19:53:00,20.5,3.4,29.90,WNW,286,0.0,0.0,47,0.00,,,0.03,0,Wunderground v.1.15,2014-02-27 00:53:00,
2014-02-26 19:58:00,20.2,3.6,29.90,WNW,286,0.0,0.0,48,0.00,,,0.03,0,Wunderground v.1.15,2014-02-27 00:58:00,
2014-02-26 20:08:00,19.6,7.2,29.90,WNW,294,0.0,2.0,58,0.00,,,0.03,0,Wunderground v.1.15,2014-02-27 01:08:00,
2014-02-26 20:13:00,19.2,7.9,29.90,WNW,294,0.0,0.0,61,0.00,,,0.03,0,Wunderground v.1.15,2014-02-27 01:13:00,
2014-02-26 20:23:00,18.3,8.1,29.90,WNW,294,0.0,0.0,64,0.00,,,0.03,0,Wunderground v.1.15,2014-02-27 01:23:00,
2014-02-26 20:28:00,17.9,8.1,29.90,WNW,295,0.0,0.0,65,0.00,,,0.03,0,Wunderground v.1.15,2014-02-27 01:28:00,
2014-02-26 20:33:00,17.5,8.4,29.90,WNW,295,1.0,1.0,67,0.00,,,0.03,0,Wunderground v.1.15,2014-02-27 01:33:00,
2014-02-26 20:38:00,17.1,8.7,29.90,WNW,295,0.0,1.0,69,0.00,,,0.03,0,Wunderground v.1.15,2014-02-27 01:38:00,
2014-02-26 20:43:00,16.7,8.6,29.91,WNW,295,0.0,0.0,70,0.00,,,0.03,0,Wunderground v.1.15,2014-02-27 01:43:00,
2014-02-26 20:48:00,16.4,8.0,29.91,WNW,295,0.0,0.0,69,0.00,,,0.03,0,Wunderground v.1.15,2014-02-27 01:48:00,
2014-02-26 20:53:00,16.1,7.4,29.91,WNW,295,0.0,0.0,68,0.00,,,0.03,0,Wunderground v.1.15,2014-02-27 01:53:00,
2014-02-26 20:58:00,15.9,7.2,29.91,WNW,295,0.0,0.0,68,0.00,,,0.03,0,Wunderground v.1.15,2014-02-27 01:58:00,
2014-02-26 21:03:00,15.6,7.2,29.91,WNW,295,0.0,0.0,69,0.00,,,0.03,0,Wunderground v.1.15,2014-02-27 02:03:00,
2014-02-26 21:09:00,15.3,7.9,29.92,WNW,295,0.0,0.0,72,0.00,,,0.03,0,Wunderground v.1.15,2014-02-27 02:09:00,
2014-02-26 21:14:00,15.1,8.3,29.92,WNW,295,0.0,0.0,74,0.00,,,0.03,0,Wunderground v.1.15,2014-02-27 02:14:00,
2014-02-26 21:24:00,14.6,6.9,29.92,WNW,295,0.0,0.0,71,0.00,,,0.03,0,Wunderground v.1.15,2014-02-27 02:24:00,
2014-02-26 21:33:00,14.1,7.3,29.92,WNW,295,0.0,0.0,74,0.00,,,0.03,0,Wunderground v.1.15,2014-02-27 02:33:00,
2014-02-26 21:38:00,14.0,6.9,29.92,WNW,295,0.0,0.0,73,0.00,,,0.03,0,Wunderground v.1.15,2014-02-27 02:38:00,
2014-02-26 21:43:00,13.9,7.1,29.92,WNW,295,0.0,0.0,74,0.00,,,0.03,0,Wunderground v.1.15,2014-02-27 02:43:00,
2014-02-26 21:48:00,13.8,6.7,29.92,WNW,295,0.0,0.0,73,0.00,,,0.03,0,Wunderground v.1.15,2014-02-27 02:48:00,
2014-02-26 21:53:00,13.6,6.8,29.92,WNW,295,0.0,0.0,74,0.00,,,0.03,0,Wunderground v.1.15,2014-02-27 02:53:00,
2014-02-26 22:03:00,13.3,6.6,29.92,WNW,295,0.0,0.0,74,0.00,,,0.03,0,Wunderground v.1.15,2014-02-27 03:03:00,
2014-02-26 22:08:00,13.2,6.8,29.92,WNW,295,0.0,0.0,75,0.00,,,0.03,0,Wunderground v.1.15,2014-02-27 03:08:00,
2014-02-26 22:13:00,13.1,6.4,29.92,WNW,295,0.0,0.0,74,0.00,,,0.03,0,Wunderground v.1.15,2014-02-27 03:13:00,
2014-02-26 22:18:00,12.9,5.9,29.92,WNW,295,0.0,0.0,73,0.00,,,0.03,0,Wunderground v.1.15,2014-02-27 03:18:00,
2014-02-26 22:23:00,12.7,5.7,29.92,WNW,295,0.0,0.0,73,0.00,,,0.03,0,Wunderground v.1.15,2014-02-27 03:23:00,
2014-02-26 22:33:00,12.4,5.7,29.92,WNW,295,0.0,0.0,74,0.00,,,0.03,0,Wunderground v.1.15,2014-02-27 03:33:00,
2014-02-26 22:38:00,12.2,5.5,29.92,WNW,295,0.0,0.0,74,0.00,,,0.03,0,Wunderground v.1.15,2014-02-27 03:38:00,
2014-02-26 22:43:00,12.0,5.3,29.92,WNW,295,0.0,0.0,74,0.00,,,0.03,0,Wunderground v.1.15,2014-02-27 03:43:00,
2014-02-26 22:48:00,11.8,5.4,29.92,WNW,295,0.0,0.0,75,0.00,,,0.03,0,Wunderground v.1.15,2014-02-27 03:48:00,
2014-02-26 22:53:00,11.6,5.5,29.92,WNW,295,0.0,0.0,76,0.00,,,0.03,0,Wunderground v.1.15,2014-02-27 03:53:00,
2014-02-26 22:58:00,11.4,5.0,29.92,WNW,295,0.0,0.0,75,0.00,,,0.03,0,Wunderground v.1.15,2014-02-27 03:58:00,
2014-02-26 23:08:00,11.0,4.9,29.92,WNW,295,0.0,0.0,76,0.00,,,0.03,0,Wunderground v.1.15,2014-02-27 04:08:00,
2014-02-26 23:13:00,10.9,4.8,29.92,WNW,295,0.0,0.0,76,0.00,,,0.03,0,Wunderground v.1.15,2014-02-27 04:13:00,
2014-02-26 23:18:00,10.8,5.0,29.92,WNW,295,0.0,0.0,77,0.00,,,0.03,0,Wunderground v.1.15,2014-02-27 04:18:00,
2014-02-26 23:23:00,10.6,4.8,29.91,WNW,295,0.0,0.0,77,0.00,,,0.03,0,Wunderground v.1.15,2014-02-27 04:23:00,
2014-02-26 23:28:00,10.4,4.6,29.91,WNW,295,0.0,0.0,77,0.00,,,0.03,0,Wunderground v.1.15,2014-02-27 04:28:00,
2014-02-26 23:33:00,10.2,4.4,29.92,WNW,295,0.0,0.0,77,0.00,,,0.03,0,Wunderground v.1.15,2014-02-27 04:33:00,
2014-02-26 23:39:00,10.0,4.2,29.91,WNW,295,0.0,0.0,77,0.00,,,0.03,0,Wunderground v.1.15,2014-02-27 04:39:00,
2014-02-26 23:43:00,9.8,4.0,29.91,WNW,295,0.0,0.0,77,0.00,,,0.03,0,Wunderground v.1.15,2014-02-27 04:43:00,
2014-02-26 23:48:00,9.6,3.8,29.91,WNW,295,0.0,0.0,77,0.00,,,0.03,0,Wunderground v.1.15,2014-02-27 04:48:00,
2014-02-26 23:50:00,9.4,4.2,29.90,WNW,295,0.0,0.0,79,0.00,,,0.00,0,Wunderground v.1.15,2014-02-27 04:50:00,
2014-02-26 23:54:00,9.5,4.3,29.91,WNW,295,0.0,0.0,79,0.00,,,0.03,0,Wunderground v.1.15,2014-02-27 04:54:00,
2014-02-26 23:55:00,9.2,4.3,29.91,WNW,295,0.0,0.0,80,0.00,,,0.00,0,Wunderground v.1.15,2014-02-27 04:55:00,
2014-02-26 23:59:00,9.4,4.2,29.91,WNW,295,0.0,0.0,79,0.00,,,0.03,0,Wunderground v.1.15,2014-02-27 04:59:00,